RYR5XD EPKK-LICA

Flight info

Callsign RYR5XD
Flight time 1h 48m
Altitude 24000
Route BABKO M866 NIDOK/N0450F360 DCT OSDUK/N0447F380 DCT AIOSA/N0446F370 DCT ALIXI DCT CRN L869 CDC
Aircraft B738/M-SDE2E3FGHIRWXY/LB1

Departure

Time 2026-05-05 09:21
Airport Kraków John Paul II International Airport (EPKK)

Arrival

Time 2026-05-05 11:09
Airport Lamezia Terme Sant'Eufemia International Airport (LICA)
Time Latitude Longitude Altitude Speed Heading
2026-05-05 09:05 50.07454 19.79854 799 ft 0 kts 258°
2026-05-05 09:13 50.07453 19.79854 871 ft 0 kts 247°
2026-05-05 09:13 50.07454 19.79854 870 ft 0 kts 258°
2026-05-05 09:17 50.07452 19.79844 870 ft 4 kts 257°
2026-05-05 09:18 50.07446 19.79790 799 ft 2 kts 274°
2026-05-05 09:18 50.07458 19.79770 799 ft 4 kts 328°
2026-05-05 09:18 50.07514 19.79744 799 ft 15 kts 347°
2026-05-05 09:18 50.07622 19.79707 799 ft 16 kts 348°
2026-05-05 09:19 50.07700 19.79779 799 ft 15 kts 77°
2026-05-05 09:19 50.07726 19.79973 799 ft 21 kts 78°
2026-05-05 09:19 50.07756 19.80192 799 ft 20 kts 77°
2026-05-05 09:19 50.07814 19.80347 799 ft 13 kts 359°
2026-05-05 09:20 50.07906 19.80316 799 ft 14 kts 348°
2026-05-05 09:20 50.08013 19.80244 799 ft 19 kts 291°
2026-05-05 09:20 50.07994 19.80075 800 ft 28 kts 258°
2026-05-05 09:20 50.07897 19.79385 799 ft 101 kts 257°
2026-05-05 09:21 50.07707 19.78008 800 ft 161 kts 257°
2026-05-05 09:21 50.07481 19.76259 1344 ft 165 kts 256°
2026-05-05 09:21 50.07222 19.74470 2009 ft 174 kts 253°
2026-05-05 09:21 50.06938 19.72574 2641 ft 187 kts 254°
2026-05-05 09:22 50.06616 19.70490 2872 ft 207 kts 254°
2026-05-05 09:22 50.06227 19.68234 3084 ft 224 kts 246°
2026-05-05 09:22 50.05294 19.66267 3507 ft 228 kts 221°
2026-05-05 09:22 50.03935 19.65028 4071 ft 230 kts 196°
2026-05-05 09:23 50.02319 19.64986 4582 ft 235 kts 177°
2026-05-05 09:23 50.00707 19.64555 5046 ft 243 kts 200°
2026-05-05 09:23 49.99059 19.63619 5481 ft 255 kts 199°
2026-05-05 09:23 49.97367 19.62834 6303 ft 255 kts 198°
2026-05-05 09:24 49.95640 19.62020 6892 ft 263 kts 198°
2026-05-05 09:24 49.93883 19.61201 7659 ft 262 kts 198°
2026-05-05 09:24 49.92119 19.60397 8343 ft 267 kts 197°
2026-05-05 09:24 49.90322 19.59592 9077 ft 270 kts 198°
2026-05-05 09:25 49.88533 19.58796 9850 ft 271 kts 197°
2026-05-05 09:25 49.86702 19.57989 10451 ft 279 kts 198°
2026-05-05 09:25 49.84752 19.57129 10664 ft 301 kts 197°
2026-05-05 09:25 49.82653 19.56208 10804 ft 324 kts 197°
2026-05-05 09:26 49.80443 19.55244 11331 ft 331 kts 197°
2026-05-05 09:26 49.78225 19.54277 12085 ft 333 kts 197°
2026-05-05 09:26 49.75985 19.53307 12773 ft 336 kts 197°
2026-05-05 09:26 49.73702 19.52312 13344 ft 344 kts 197°
2026-05-05 09:27 49.71378 19.51303 14063 ft 347 kts 197°
2026-05-05 09:27 49.69043 19.50291 14723 ft 351 kts 197°
2026-05-05 09:27 49.66679 19.49269 15379 ft 355 kts 197°
2026-05-05 09:27 49.64306 19.48242 16161 ft 355 kts 197°
2026-05-05 09:28 49.61919 19.47171 16831 ft 358 kts 201°
2026-05-05 09:28 49.59641 19.45625 17492 ft 360 kts 210°
2026-05-05 09:28 49.57477 19.43707 18070 ft 364 kts 212°
2026-05-05 09:28 49.55267 19.41713 18524 ft 373 kts 211°
2026-05-05 09:29 49.53028 19.39691 19201 ft 373 kts 211°
2026-05-05 09:29 49.50790 19.37676 19946 ft 371 kts 211°
2026-05-05 09:29 49.48557 19.35678 20564 ft 373 kts 211°
2026-05-05 09:29 49.48007 19.35187 20742 ft 375 kts 211°
2026-05-05 09:30 49.45714 19.33144 20913 ft 390 kts 210°
2026-05-05 09:30 49.43322 19.31023 21122 ft 402 kts 210°
2026-05-05 09:30 49.40888 19.28871 21575 ft 406 kts 210°
2026-05-05 09:30 49.38428 19.26699 22122 ft 408 kts 210°
2026-05-05 09:31 49.35966 19.24527 22635 ft 410 kts 210°
2026-05-05 09:31 49.33476 19.22334 23056 ft 414 kts 210°
2026-05-05 09:31 49.30957 19.20117 23464 ft 419 kts 210°
2026-05-05 09:31 49.28427 19.17893 23978 ft 419 kts 210°
2026-05-05 09:32 49.25887 19.15663 24464 ft 421 kts 210°
2026-05-05 09:32 49.23344 19.13433 24881 ft 424 kts 210°
2026-05-05 09:32 49.20766 19.11175 25169 ft 429 kts 210°
2026-05-05 09:32 49.18160 19.08894 25565 ft 432 kts 210°
2026-05-05 09:33 49.15585 19.06644 26034 ft 432 kts 210°
2026-05-05 09:33 49.12975 19.04367 26483 ft 432 kts 210°
2026-05-05 09:33 49.10356 19.02083 26849 ft 435 kts 210°
2026-05-05 09:33 49.07717 18.99785 27172 ft 438 kts 210°
2026-05-05 09:34 49.05057 18.97473 27474 ft 441 kts 210°
2026-05-05 09:34 49.02388 18.95155 27817 ft 443 kts 210°
2026-05-05 09:34 48.99710 18.92831 28147 ft 445 kts 210°
2026-05-05 09:34 48.97010 18.90491 28462 ft 447 kts 210°
2026-05-05 09:35 48.94306 18.88150 28759 ft 449 kts 210°
2026-05-05 09:35 48.88822 18.83503 29332 ft 453 kts 205°
2026-05-05 09:35 48.85873 18.81798 29589 ft 455 kts 196°
2026-05-05 09:36 48.82833 18.80845 30126 ft 455 kts 189°
2026-05-05 09:36 48.79695 18.80140 30399 ft 457 kts 190°
2026-05-05 09:36 48.76543 18.79451 30799 ft 456 kts 190°
2026-05-05 09:36 48.73413 18.78763 31293 ft 453 kts 190°
2026-05-05 09:37 48.70295 18.78068 31724 ft 452 kts 190°
2026-05-05 09:37 48.67182 18.77360 32155 ft 451 kts 190°
2026-05-05 09:37 48.64090 18.76648 32638 ft 449 kts 191°
2026-05-05 09:37 48.61010 18.75933 33138 ft 446 kts 191°
2026-05-05 09:38 48.57939 18.75208 33504 ft 447 kts 192°
2026-05-05 09:38 48.54870 18.74486 33924 ft 447 kts 191°
2026-05-05 09:38 48.51804 18.73769 34350 ft 444 kts 192°
2026-05-05 09:38 48.48748 18.73048 34766 ft 443 kts 191°
2026-05-05 09:39 48.45701 18.72343 35057 ft 444 kts 192°
2026-05-05 09:39 48.42639 18.71636 35325 ft 445 kts 191°
2026-05-05 09:39 48.39579 18.70928 35565 ft 446 kts 191°
2026-05-05 09:39 48.36511 18.70220 35831 ft 445 kts 191°
2026-05-05 09:40 48.33459 18.69517 36156 ft 443 kts 192°
2026-05-05 09:40 48.30407 18.68814 36400 ft 443 kts 192°
2026-05-05 09:40 48.25331 18.67639 36681 ft 445 kts 191°
2026-05-05 09:41 48.22272 18.66934 36905 ft 444 kts 192°
2026-05-05 09:41 48.19221 18.66235 37185 ft 443 kts 191°
2026-05-05 09:41 48.15151 18.65305 37469 ft 442 kts 191°
2026-05-05 09:41 48.13138 18.64840 37577 ft 443 kts 191°
2026-05-05 09:42 48.10085 18.64137 37727 ft 444 kts 191°
2026-05-05 09:42 48.07021 18.63432 37773 ft 448 kts 191°
2026-05-05 09:42 48.03935 18.62724 37948 ft 447 kts 191°
2026-05-05 09:42 48.00857 18.62020 37985 ft 449 kts 191°
2026-05-05 09:43 47.94732 18.60623 37981 ft 446 kts 191°
2026-05-05 09:43 47.88618 18.59235 38000 ft 442 kts 191°
2026-05-05 09:44 47.82549 18.57858 37995 ft 440 kts 191°
2026-05-05 09:44 47.76507 18.56492 37990 ft 438 kts 191°
2026-05-05 09:45 47.70481 18.55134 38001 ft 438 kts 192°
2026-05-05 09:45 47.64454 18.53770 38001 ft 438 kts 191°
2026-05-05 09:46 47.58412 18.52408 38008 ft 439 kts 191°
2026-05-05 09:46 47.52359 18.51045 38011 ft 441 kts 192°
2026-05-05 09:47 47.46325 18.49693 38003 ft 442 kts 191°
2026-05-05 09:47 47.40235 18.48337 38009 ft 442 kts 192°
2026-05-05 09:48 47.34144 18.46983 38000 ft 443 kts 191°
2026-05-05 09:48 47.28049 18.45631 38005 ft 442 kts 192°
2026-05-05 09:49 47.21954 18.44280 38009 ft 442 kts 191°
2026-05-05 09:49 47.15905 18.42939 38001 ft 441 kts 191°
2026-05-05 09:50 47.09830 18.41599 37996 ft 441 kts 191°
2026-05-05 09:50 47.03766 18.40263 38015 ft 440 kts 191°
2026-05-05 09:51 46.97703 18.38930 38006 ft 441 kts 191°
2026-05-05 09:51 46.91630 18.37598 38007 ft 441 kts 191°
2026-05-05 09:52 46.85557 18.36270 38000 ft 442 kts 191°
2026-05-05 09:52 46.79514 18.34951 38002 ft 442 kts 191°
2026-05-05 09:53 46.73423 18.33625 37999 ft 443 kts 191°
2026-05-05 09:53 46.67321 18.32299 38001 ft 443 kts 191°
2026-05-05 09:54 46.61225 18.30978 38003 ft 443 kts 191°
2026-05-05 09:54 46.55124 18.29659 37998 ft 443 kts 191°
2026-05-05 09:55 46.49026 18.28343 37994 ft 443 kts 191°
2026-05-05 09:55 46.42933 18.27031 37999 ft 442 kts 191°
2026-05-05 09:56 46.36845 18.25723 37997 ft 442 kts 191°
2026-05-05 09:56 46.30755 18.24419 38003 ft 442 kts 191°
2026-05-05 09:57 46.24672 18.23117 38003 ft 442 kts 191°
2026-05-05 09:57 46.18590 18.21820 38008 ft 442 kts 191°
2026-05-05 09:58 46.12505 18.20525 38001 ft 442 kts 191°
2026-05-05 09:58 46.06427 18.19234 38021 ft 442 kts 191°
2026-05-05 09:59 46.00341 18.17944 38024 ft 442 kts 191°
2026-05-05 09:59 45.94248 18.16655 38026 ft 443 kts 191°
2026-05-05 10:00 45.88170 18.15372 38014 ft 444 kts 191°
2026-05-05 10:00 45.82056 18.14085 38017 ft 444 kts 191°
2026-05-05 10:01 45.75935 18.12758 38013 ft 445 kts 192°
2026-05-05 10:01 45.69822 18.11260 37989 ft 446 kts 193°
2026-05-05 10:02 45.63706 18.09732 38011 ft 446 kts 193°
2026-05-05 10:02 45.57581 18.08220 38010 ft 447 kts 193°
2026-05-05 10:03 45.51441 18.06723 38000 ft 448 kts 193°
2026-05-05 10:03 45.45339 18.05243 38012 ft 448 kts 193°
2026-05-05 10:04 45.39196 18.03757 38011 ft 448 kts 193°
2026-05-05 10:04 45.33054 18.02274 38007 ft 448 kts 193°
2026-05-05 10:05 45.26908 18.00793 38001 ft 447 kts 193°
2026-05-05 10:05 45.20770 17.99316 38011 ft 446 kts 193°
2026-05-05 10:06 45.14643 17.97846 38004 ft 446 kts 193°
2026-05-05 10:06 45.08567 17.96392 38010 ft 446 kts 193°
2026-05-05 10:07 45.02440 17.94928 38015 ft 445 kts 193°
2026-05-05 10:07 44.96328 17.93470 38008 ft 446 kts 193°
2026-05-05 10:08 44.90211 17.92015 38009 ft 446 kts 193°
2026-05-05 10:08 44.84096 17.90564 38012 ft 446 kts 193°
2026-05-05 10:09 44.77974 17.89113 38017 ft 446 kts 193°
2026-05-05 10:09 44.71847 17.87665 38016 ft 446 kts 193°
2026-05-05 10:10 44.65755 17.86228 38015 ft 446 kts 193°
2026-05-05 10:10 44.59627 17.84786 38019 ft 446 kts 193°
2026-05-05 10:11 44.53498 17.83347 38012 ft 446 kts 193°
2026-05-05 10:11 44.47374 17.81911 38029 ft 445 kts 193°
2026-05-05 10:12 44.41264 17.80483 38028 ft 445 kts 193°
2026-05-05 10:12 44.35158 17.79059 38037 ft 444 kts 193°
2026-05-05 10:13 44.29066 17.77641 38037 ft 443 kts 193°
2026-05-05 10:13 44.22983 17.76226 38052 ft 442 kts 193°
2026-05-05 10:14 44.16940 17.74825 38050 ft 442 kts 193°
2026-05-05 10:14 44.10862 17.73418 38042 ft 442 kts 194°
2026-05-05 10:15 44.04788 17.72019 38054 ft 442 kts 193°
2026-05-05 10:15 43.98705 17.70616 38061 ft 443 kts 194°
2026-05-05 10:16 43.92612 17.69212 38059 ft 444 kts 194°
2026-05-05 10:16 43.86547 17.67819 38070 ft 445 kts 194°
2026-05-05 10:17 43.80436 17.66421 38060 ft 445 kts 194°
2026-05-05 10:17 43.74332 17.65026 38065 ft 444 kts 194°
2026-05-05 10:18 43.68242 17.63634 38086 ft 443 kts 194°
2026-05-05 10:18 43.62171 17.62254 38086 ft 442 kts 194°
2026-05-05 10:19 43.56105 17.60878 38078 ft 441 kts 194°
2026-05-05 10:19 43.50087 17.59514 38077 ft 439 kts 194°
2026-05-05 10:20 43.45037 17.58372 38088 ft 439 kts 194°
2026-05-05 10:21 43.32722 17.55593 38091 ft 438 kts 194°
2026-05-05 10:21 43.26706 17.54240 38098 ft 438 kts 194°
2026-05-05 10:22 43.20690 17.52889 38100 ft 438 kts 194°
2026-05-05 10:22 43.14663 17.51538 38096 ft 439 kts 194°
2026-05-05 10:23 43.08615 17.50186 38099 ft 440 kts 194°
2026-05-05 10:23 43.02560 17.48835 38090 ft 441 kts 194°
2026-05-05 10:24 42.96541 17.47495 38102 ft 441 kts 194°
2026-05-05 10:24 42.90477 17.46148 38100 ft 441 kts 194°
2026-05-05 10:25 42.84405 17.44801 38084 ft 442 kts 194°
2026-05-05 10:25 42.78336 17.43458 38104 ft 442 kts 194°
2026-05-05 10:26 42.72268 17.42118 38100 ft 442 kts 194°
2026-05-05 10:26 42.66207 17.40782 38092 ft 441 kts 194°
2026-05-05 10:27 42.60148 17.39448 38099 ft 441 kts 194°
2026-05-05 10:27 42.54126 17.38126 38104 ft 441 kts 194°
2026-05-05 10:28 42.48061 17.36796 38078 ft 441 kts 194°
2026-05-05 10:28 42.41999 17.35470 38096 ft 441 kts 194°
2026-05-05 10:29 42.35931 17.34145 38100 ft 441 kts 194°
2026-05-05 10:29 42.29867 17.32823 38079 ft 442 kts 194°
2026-05-05 10:30 42.23789 17.31501 38086 ft 442 kts 194°
2026-05-05 10:30 42.17741 17.30189 38093 ft 443 kts 194°
2026-05-05 10:31 42.11649 17.28869 38089 ft 444 kts 194°
2026-05-05 10:31 42.05538 17.27547 38087 ft 444 kts 195°
2026-05-05 10:32 41.99431 17.26229 38088 ft 445 kts 195°
2026-05-05 10:32 41.93313 17.24952 38082 ft 447 kts 191°
2026-05-05 10:33 41.87026 17.25093 38090 ft 455 kts 181°
2026-05-05 10:33 41.80703 17.25701 38095 ft 455 kts 181°
2026-05-05 10:34 41.74422 17.26280 38083 ft 456 kts 182°
2026-05-05 10:34 41.68090 17.26816 38071 ft 456 kts 182°
2026-05-05 10:35 41.61752 17.27331 38085 ft 456 kts 182°
2026-05-05 10:35 41.55400 17.27842 38082 ft 457 kts 182°
2026-05-05 10:36 41.49053 17.28353 38082 ft 457 kts 182°
2026-05-05 10:36 41.42696 17.28865 38078 ft 458 kts 182°
2026-05-05 10:37 41.36327 17.29377 38076 ft 458 kts 182°
2026-05-05 10:37 41.29959 17.29888 38076 ft 458 kts 182°
2026-05-05 10:38 41.23631 17.30395 38073 ft 459 kts 182°
2026-05-05 10:38 41.17248 17.30906 38077 ft 459 kts 182°
2026-05-05 10:39 41.10863 17.31415 38077 ft 459 kts 182°
2026-05-05 10:39 41.04473 17.31924 38071 ft 460 kts 182°
2026-05-05 10:40 40.98088 17.32432 38081 ft 460 kts 182°
2026-05-05 10:40 40.91685 17.32939 38083 ft 461 kts 182°
2026-05-05 10:41 40.85318 17.33444 38074 ft 461 kts 181°
2026-05-05 10:41 40.78914 17.33955 38091 ft 461 kts 181°
2026-05-05 10:42 40.69307 17.34709 38099 ft 461 kts 182°
2026-05-05 10:43 40.62904 17.35211 38099 ft 461 kts 181°
2026-05-05 10:43 40.56502 17.35713 38104 ft 461 kts 181°
2026-05-05 10:44 40.50087 17.36216 38105 ft 461 kts 181°
2026-05-05 10:44 40.43767 17.36714 38067 ft 448 kts 182°
2026-05-05 10:44 40.40705 17.36960 38078 ft 433 kts 182°
2026-05-05 10:45 40.37745 17.37198 38084 ft 419 kts 182°
2026-05-05 10:45 40.31948 17.37646 38121 ft 420 kts 182°
2026-05-05 10:46 40.26040 17.38090 38116 ft 430 kts 182°
2026-05-05 10:46 40.20021 17.38551 37861 ft 439 kts 182°
2026-05-05 10:46 40.16953 17.38787 37230 ft 443 kts 182°
2026-05-05 10:47 40.13847 17.39027 36279 ft 452 kts 182°
2026-05-05 10:47 40.10662 17.39270 35251 ft 464 kts 183°
2026-05-05 10:47 40.07434 17.39514 34228 ft 477 kts 183°
2026-05-05 10:47 40.04077 17.39770 33196 ft 487 kts 182°
2026-05-05 10:48 40.00708 17.40036 32656 ft 483 kts 182°
2026-05-05 10:48 39.97375 17.40304 32354 ft 475 kts 182°
2026-05-05 10:48 39.94100 17.40565 31963 ft 468 kts 182°
2026-05-05 10:48 39.90858 17.40819 31497 ft 465 kts 182°
2026-05-05 10:49 39.87633 17.41067 31011 ft 462 kts 182°
2026-05-05 10:49 39.84437 17.41312 30567 ft 459 kts 182°
2026-05-05 10:49 39.81261 17.41555 30149 ft 454 kts 182°
2026-05-05 10:49 39.78117 17.41795 29633 ft 451 kts 182°
2026-05-05 10:50 39.75000 17.42033 29096 ft 448 kts 182°
2026-05-05 10:50 39.71900 17.42269 28594 ft 444 kts 181°
2026-05-05 10:50 39.68825 17.42504 28120 ft 441 kts 181°
2026-05-05 10:50 39.65775 17.42737 27648 ft 437 kts 181°
2026-05-05 10:51 39.62750 17.42967 27176 ft 434 kts 181°
2026-05-05 10:51 39.59750 17.43196 26714 ft 430 kts 181°
2026-05-05 10:51 39.56770 17.43422 26249 ft 427 kts 181°
2026-05-05 10:51 39.53846 17.43644 25805 ft 423 kts 181°
2026-05-05 10:52 39.50937 17.43867 25258 ft 415 kts 181°
2026-05-05 10:52 39.48067 17.44015 24536 ft 410 kts 187°
2026-05-05 10:52 39.45278 17.43494 23823 ft 401 kts 199°
2026-05-05 10:52 39.42683 17.42306 23104 ft 391 kts 210°
2026-05-05 10:53 39.40349 17.40589 22369 ft 382 kts 216°
2026-05-05 10:53 39.38108 17.38783 21681 ft 377 kts 216°
2026-05-05 10:53 39.35899 17.36993 21036 ft 372 kts 216°
2026-05-05 10:53 39.33715 17.35232 20479 ft 365 kts 215°
2026-05-05 10:54 39.31581 17.33523 20034 ft 356 kts 215°
2026-05-05 10:54 39.29496 17.31864 19635 ft 347 kts 215°
2026-05-05 10:54 39.27449 17.30238 19263 ft 346 kts 215°
2026-05-05 10:54 39.25398 17.28611 18859 ft 348 kts 214°
2026-05-05 10:55 39.23324 17.26968 18192 ft 350 kts 214°
2026-05-05 10:55 39.21235 17.25316 17301 ft 354 kts 214°
2026-05-05 10:55 39.19138 17.23662 16590 ft 352 kts 214°
2026-05-05 10:55 39.17066 17.22029 15958 ft 347 kts 214°
2026-05-05 10:56 39.15013 17.20413 15335 ft 344 kts 213°
2026-05-05 10:56 39.12984 17.18815 14732 ft 340 kts 213°
2026-05-05 10:56 39.10977 17.17236 14163 ft 336 kts 214°
2026-05-05 10:56 39.08994 17.15676 13558 ft 332 kts 214°
2026-05-05 10:57 39.07032 17.14134 12915 ft 328 kts 213°
2026-05-05 10:57 39.05088 17.12609 12305 ft 325 kts 213°
2026-05-05 10:57 39.03192 17.11121 12009 ft 312 kts 213°
2026-05-05 10:57 39.01376 17.09700 11775 ft 300 kts 214°
2026-05-05 10:58 38.99751 17.08093 11472 ft 293 kts 232°
2026-05-05 10:58 38.98735 17.05894 11075 ft 290 kts 248°
2026-05-05 10:58 38.97933 17.03496 10617 ft 293 kts 248°
2026-05-05 10:58 38.97143 17.01066 10205 ft 296 kts 249°
2026-05-05 10:59 38.96346 16.98615 9804 ft 297 kts 249°
2026-05-05 10:59 38.95548 16.96176 9441 ft 296 kts 248°
2026-05-05 10:59 38.94748 16.93745 9045 ft 295 kts 248°
2026-05-05 10:59 38.93944 16.91318 8672 ft 295 kts 248°
2026-05-05 11:00 38.93138 16.88893 8288 ft 295 kts 248°
2026-05-05 11:00 38.92332 16.86473 7897 ft 295 kts 247°
2026-05-05 11:00 38.91525 16.84058 7527 ft 294 kts 248°
2026-05-05 11:00 38.90983 16.82434 7278 ft 291 kts 247°
2026-05-05 11:01 38.89941 16.79315 6786 ft 282 kts 247°
2026-05-05 11:01 38.89432 16.77795 6542 ft 277 kts 246°
2026-05-05 11:01 38.88679 16.75549 6172 ft 271 kts 246°
2026-05-05 11:01 38.87941 16.73346 5802 ft 267 kts 246°
2026-05-05 11:02 38.87209 16.71163 5387 ft 263 kts 246°
2026-05-05 11:02 38.86492 16.69026 5029 ft 259 kts 246°
2026-05-05 11:02 38.85782 16.66917 4661 ft 258 kts 246°
2026-05-05 11:02 38.85075 16.64811 4290 ft 255 kts 247°
2026-05-05 11:03 38.84738 16.62607 3936 ft 253 kts 274°
2026-05-05 11:03 38.85097 16.60429 3771 ft 247 kts 285°
2026-05-05 11:03 38.85610 16.58397 3559 ft 238 kts 287°
2026-05-05 11:03 38.86123 16.56412 3336 ft 231 kts 286°
2026-05-05 11:04 38.86614 16.54476 3106 ft 224 kts 287°
2026-05-05 11:04 38.87079 16.52620 3013 ft 212 kts 285°
2026-05-05 11:04 38.87452 16.50877 3004 ft 194 kts 278°
2026-05-05 11:04 38.87655 16.49191 3000 ft 193 kts 277°
2026-05-05 11:05 38.87835 16.47503 2999 ft 188 kts 276°
2026-05-05 11:05 38.88018 16.45882 2982 ft 175 kts 278°
2026-05-05 11:05 38.88229 16.44313 2822 ft 178 kts 279°
2026-05-05 11:05 38.88422 16.42747 2607 ft 177 kts 278°
2026-05-05 11:06 38.88603 16.41198 2361 ft 171 kts 276°
2026-05-05 11:06 38.88776 16.39665 2153 ft 177 kts 276°
2026-05-05 11:06 38.88953 16.38087 1921 ft 179 kts 277°
2026-05-05 11:06 38.89134 16.36511 1679 ft 177 kts 276°
2026-05-05 11:07 38.89307 16.35003 1449 ft 165 kts 275°
2026-05-05 11:07 38.89465 16.33613 1232 ft 149 kts 276°
2026-05-05 11:07 38.89612 16.32332 1042 ft 146 kts 277°
2026-05-05 11:07 38.89756 16.31072 846 ft 140 kts 276°
2026-05-05 11:08 38.89895 16.29848 676 ft 140 kts 277°
2026-05-05 11:08 38.90037 16.28582 470 ft 144 kts 277°
2026-05-05 11:08 38.90179 16.27338 305 ft 137 kts 278°
2026-05-05 11:08 38.90320 16.26134 110 ft 139 kts 276°
2026-05-05 11:09 38.90457 16.24960 39 ft 120 kts 276°
2026-05-05 11:09 38.90559 16.24064 28 ft 80 kts 278°
2026-05-05 11:09 38.90645 16.23637 31 ft 26 kts 304°
2026-05-05 11:09 38.90730 16.23498 33 ft 20 kts 325°
2026-05-05 11:10 38.90837 16.23546 31 ft 19 kts 79°
2026-05-05 11:10 38.90824 16.23712 31 ft 18 kts 98°
2026-05-05 11:10 38.90868 16.23808 31 ft 13 kts 44°
2026-05-05 11:10 38.90873 16.23915 31 ft 12 kts 99°
2026-05-05 11:11 38.90860 16.24024 31 ft 12 kts 99°
2026-05-05 11:11 38.90847 16.24128 31 ft 12 kts 98°
2026-05-05 11:11 38.90836 16.24232 31 ft 12 kts 98°
2026-05-05 11:11 38.90827 16.24310 31 ft 9 kts 98°
2026-05-05 11:12 38.90864 16.24358 31 ft 8 kts 21°
2026-05-05 11:12 38.90878 16.24363 31 ft 0 kts 26°
2026-05-05 11:12 38.90885 16.24373 31 ft 2 kts 51°
2026-05-05 11:12 38.90890 16.24382 30 ft 0 kts 54°